Flag for Poland Weather past 2 weeks in Kraków, Poland

Now
36 °F

Passing clouds.


Feels Like: 29 °F
Forecast: 32 / 41 °F
Wind: 8 mph from Northwest

Location: Krakow Airport

Current Time: Mar 5, 2015 at 9:34:10 PM

Latest Report: Mar 5, 2015 at 9:00 PM


Visibility: N/A

Pressure: 30.42 "Hg

Humidity: 81%

Dew point: 30 °F

Location of KrakówLocation

Historic Weather in Kraków — Graph

°F

Kraków temperature yesterday

Maximum temperature yesterday: 43 °F (at 2:00 PM)
Minimum temperature yesterday: 27 °F (at 1:00 AM)
Average temperature yesterday: 33 °F

Past Weeks' High & Low Weather Summary

 TemperatureHumidityPressure
High54 °F (Feb 23, 3:30 PM)100% (Feb 20, 5:00 AM)30.60 "Hg (Feb 20, 5:00 AM)
Low25 °F (Feb 21, 2:00 AM)32% (Feb 21, 3:30 PM)29.53 "Hg (Feb 23, 4:30 PM)
Average38 °F83%29.96 "Hg
* Reported Feb 18 8:00 PM — Mar 5 8:30 PM, Kraków, Weather by CustomWeather, © 2015

Note: Actual official high and low records may vary slightly from our data, if they occured in-between our weather recording intervals... More about our weather records

Advertising

Kraków weather history for previous 24 hours

 ConditionsComfort  
Time TempWeatherWind HumidityBarometerVisibility
8:30 PM
Thu, Mar 5
36 °FPassing clouds.8 mph81%30.42 "HgN/A
8:00 PM36 °FPassing clouds.7 mph81%30.42 "HgN/A
7:30 PM36 °FPassing clouds.7 mph81%30.39 "HgN/A
7:00 PM36 °FPassing clouds.5 mph81%30.39 "HgN/A
6:30 PM36 °FPassing clouds.6 mph87%30.39 "HgN/A
6:00 PM36 °FPassing clouds.8 mph87%30.39 "HgN/A
5:30 PM36 °FPassing clouds.7 mph87%30.36 "HgN/A
5:00 PM37 °FPartly sunny.10 mph81%30.36 "HgN/A
4:30 PM37 °FPartly sunny.9 mph81%30.36 "HgN/A
4:00 PM37 °FPartly sunny.6 mph81%30.36 "HgN/A
3:30 PM37 °FScattered clouds.9 mph81%30.36 "HgN/A
3:00 PM39 °FSnow flurries. Scattered clouds.15 mph81%30.36 "Hg5 mi
2:30 PM37 °FSnow flurries. Scattered clouds.2 mph93%30.36 "Hg5 mi
2:00 PM37 °FSnow flurries. Broken clouds.7 mph81%30.36 "HgN/A
1:30 PM37 °FSnow flurries. Broken clouds.15 mph75%30.33 "HgN/A
1:00 PM41 °FPartly sunny.7 mph61%30.33 "HgN/A
12:30 PM41 °FPartly sunny.7 mph66%30.33 "HgN/A
12:00 PM39 °FPartly sunny.12 mph81%30.36 "HgN/A
11:30 AM39 °FBroken clouds.10 mph70%30.36 "HgN/A
11:00 AM39 °FBroken clouds.6 mph65%30.33 "HgN/A
10:30 AM37 °FPartly sunny.6 mph75%30.36 "HgN/A
10:00 AM36 °FPartly sunny.6 mph75%30.36 "HgN/A
9:30 AM36 °FPartly sunny.7 mph81%30.33 "Hg5 mi
9:00 AM34 °FBroken clouds.7 mph87%30.33 "Hg5 mi
8:30 AM34 °FSnow flurries. Partly sunny.6 mph87%30.33 "Hg4 mi
8:00 AM34 °FPartly sunny.5 mph81%30.33 "Hg4 mi
7:30 AM32 °FPassing clouds.5 mph87%30.30 "Hg4 mi
7:00 AM30 °FIce fog.5 mph93%30.30 "Hg3 mi
6:30 AM28 °FIce fog.1 mph93%30.30 "Hg2 mi
6:00 AM27 °FIce fog.No wind100%30.30 "Hg2 mi
5:30 AM28 °FIce fog.1 mph93%30.30 "Hg2 mi
4:30 AM28 °FIce fog.1 mph100%30.30 "Hg2 mi
4:00 AM28 °FIce fog.No wind93%30.30 "Hg2 mi
3:00 AM27 °FIce fog.2 mph100%30.30 "Hg2 mi
2:30 AM28 °FIce fog.No wind93%30.30 "Hg3 mi
2:00 AM28 °FIce fog.2 mph93%30.30 "Hg3 mi
1:30 AM30 °FIce fog.2 mph93%30.30 "Hg3 mi
1:00 AM30 °FIce fog.2 mph93%30.30 "Hg3 mi
12:30 AM30 °FPassing clouds.2 mph86%30.27 "Hg4 mi
12:00 AM30 °FPassing clouds.No wind86%30.27 "Hg5 mi
11:30 PM
Wed, Mar 4
30 °FPassing clouds.2 mph93%30.27 "Hg5 mi
11:00 PM30 °FPassing clouds.1 mph93%30.24 "Hg5 mi
10:00 PM28 °FPassing clouds.5 mph86%30.24 "Hg5 mi
9:30 PM27 °FClear.2 mph86%30.24 "Hg10 mi
9:00 PM28 °FClear.3 mph93%30.24 "Hg10 mi
Weather by CustomWeather, © 2015

See weather overviewHow to use our weather pages